Location: Dompnac
(44.5644°N, 4.1026°E)
Time: 11:02:57
(UTC+00:00)

Cosmos 2082 Rocket - Pass Details

Date: 19 September 2020
Orbit: 834 x 853 km, 71.0° (Epoch: 29 October)

Event Time Altitude Azimuth Distance (km) Brightness Sun altitude
Rises 22:09:47 0° 330° (NNW) 3,391 6.2 -40.5°
Reaches altitude 10° 22:12:17 10° 326° (NW) 2,454 5.3 -40.7°
Enters shadow 22:14:07 21° 319° (NW) 1,803 4.4 -40.8°
